Main page
Satellite images Climate Cyclones Lightning AirportsFAQ Languages Contact Newsletter About
Weather : Europe Africa North America South America Asia Australia-Oceania Others

, Lampang, Lampang Airport

48328

latitude: , longitude: Thailand, elevation: 18-17N m


METAR: VTCL 160900Z VRB02KT 9999 FEW025 30/15 Q1010